Date,Time,Wetness (Wet Dry or Ice),Wind Speed (m/s),Temperature (C),Humidity (%),Pressure (mb),Radiation (W/m^2)
2020-08-08,05:40:00,DRY,2.40,14.37,17.3,778.00,1.5
2020-08-08,05:45:00,DRY,2.40,14.25,18.5,778.00,1.5
2020-08-08,05:50:00,DRY,2.10,14.23,19.7,778.00,1.1
2020-08-08,05:55:00,DRY,2.35,14.35,15.0,778.00,0.4
2020-08-08,06:00:00,DRY,2.20,14.43,12.3,778.00,0.9
2020-08-08,06:05:00,DRY,3.00,14.40,12.0,778.00,1.4
2020-08-08,06:10:00,DRY,2.70,14.53,11.3,778.00,1.1
2020-08-08,06:15:00,DRY,3.50,14.50,12.0,778.00,1.6
2020-08-08,06:20:00,DRY,2.23,14.57,12.3,778.33,1.7
2020-08-08,06:25:00,DRY,2.70,14.35,12.0,778.00,2.8
2020-08-08,06:30:00,DRY,2.93,14.23,12.7,778.00,4.7
2020-08-08,06:35:00,DRY,3.40,14.50,12.0,778.00,6.8
2020-08-08,06:40:00,DRY,3.40,14.53,13.7,778.00,11.8
2020-08-08,06:45:00,DRY,2.50,14.80,14.0,778.00,27.5
2020-08-08,06:50:00,DRY,1.87,14.57,15.3,778.00,45.1
2020-08-08,06:55:00,DRY,2.50,14.55,15.5,778.00,62.8
2020-08-08,07:00:00,DRY,3.10,14.80,15.0,778.33,86.5
2020-08-08,07:05:00,DRY,2.35,14.90,16.0,778.00,111.0
2020-08-08,07:10:00,DRY,3.87,15.07,15.3,778.33,130.3
2020-08-08,07:15:00,DRY,4.05,15.05,16.0,779.00,148.2
2020-08-08,07:20:00,DRY,2.97,15.07,17.0,779.00,168.4
2020-08-08,07:25:00,DRY,2.75,15.20,16.0,778.50,190.2
2020-08-08,07:30:00,DRY,3.17,15.27,16.0,778.33,211.8
2020-08-08,07:35:00,DRY,3.65,15.35,15.5,779.00,232.5
2020-08-08,07:40:00,DRY,3.37,15.47,16.7,778.33,254.7
2020-08-08,07:45:00,DRY,3.95,15.50,17.5,779.00,276.6
2020-08-08,07:50:00,DRY,3.57,15.60,17.0,778.33,298.2
2020-08-08,07:55:00,DRY,3.15,15.70,17.0,778.50,320.8
2020-08-08,08:00:00,DRY,3.30,15.85,17.5,779.00,348.6
2020-08-08,08:05:00,DRY,3.90,15.90,17.0,779.00,366.2
2020-08-08,08:10:00,DRY,3.80,16.00,17.3,779.00,386.7
2020-08-08,08:15:00,DRY,3.35,16.05,17.5,779.00,408.4
2020-08-08,08:20:00,DRY,3.17,16.10,18.3,779.00,432.0
2020-08-08,08:25:00,DRY,4.15,16.20,19.5,779.00,455.1
2020-08-08,08:30:00,DRY,3.80,16.33,24.7,779.00,477.8
2020-08-08,08:35:00,DRY,3.80,16.55,26.0,779.00,500.1
2020-08-08,08:40:00,DRY,3.80,16.63,28.0,779.00,522.1
2020-08-08,08:45:00,DRY,4.40,16.75,25.0,779.00,542.7
2020-08-08,08:50:00,DRY,3.90,16.70,25.7,779.00,563.8
2020-08-08,08:55:00,DRY,3.95,16.65,26.5,779.00,584.8
2020-08-08,09:00:00,DRY,3.60,16.67,29.0,779.00,606.1
2020-08-08,09:05:00,DRY,4.00,16.85,26.5,779.00,627.6
2020-08-08,09:10:00,DRY,3.97,16.83,27.0,779.00,646.7
2020-08-08,09:15:00,DRY,3.45,16.80,22.5,779.00,668.0
2020-08-08,09:20:00,DRY,4.47,17.13,28.0,779.00,686.6
2020-08-08,09:25:00,DRY,3.85,16.90,27.5,779.00,705.7
2020-08-08,09:30:00,DRY,4.23,16.83,23.7,779.00,725.1
2020-08-08,09:35:00,DRY,4.30,17.15,29.0,779.00,743.0
2020-08-08,09:40:00,DRY,4.50,17.30,33.3,779.00,761.7
2020-08-08,09:45:00,DRY,4.35,17.25,32.0,779.00,780.7
2020-08-08,09:50:00,DRY,4.20,17.27,33.3,779.00,798.0
2020-08-08,09:55:00,DRY,3.75,17.50,30.5,779.00,816.5
2020-08-08,10:00:00,DRY,4.27,17.37,35.0,779.00,833.5
2020-08-08,10:05:00,DRY,4.70,17.30,33.0,779.00,850.5
2020-08-08,10:10:00,DRY,3.60,17.50,34.7,779.00,866.8
2020-08-08,10:15:00,DRY,4.05,17.50,33.0,779.00,883.8
2020-08-08,10:20:00,DRY,4.47,17.43,32.3,779.00,898.7
2020-08-08,10:25:00,DRY,3.65,17.20,36.5,779.00,914.0
2020-08-08,10:30:00,DRY,3.23,17.03,33.0,779.00,929.1
2020-08-08,10:35:00,DRY,2.95,17.05,33.5,779.00,943.0
2020-08-08,10:40:00,DRY,3.17,17.30,32.7,779.00,958.3
2020-08-08,10:45:00,DRY,3.75,17.05,33.0,779.00,971.2
2020-08-08,10:50:00,DRY,3.53,17.17,34.0,779.00,985.0
2020-08-08,10:55:00,DRY,1.90,17.05,35.0,779.00,998.3
2020-08-08,11:00:00,DRY,2.10,17.47,34.3,779.00,1011.4
2020-08-08,11:05:00,DRY,2.65,17.30,36.5,779.00,1022.4
2020-08-08,11:10:00,DRY,3.37,17.30,36.0,779.00,1034.1
2020-08-08,11:15:00,DRY,3.25,17.25,34.0,779.00,1044.7
2020-08-08,11:20:00,DRY,2.70,17.07,33.3,779.00,1056.2
2020-08-08,11:25:00,DRY,3.65,17.25,34.5,779.00,1066.2
2020-08-08,11:30:00,DRY,3.03,17.30,37.3,779.00,1074.6
2020-08-08,11:35:00,DRY,3.10,16.95,41.5,779.00,1084.8
2020-08-08,11:40:00,DRY,3.10,17.27,41.0,779.00,1093.6
2020-08-08,11:45:00,DRY,2.45,17.50,39.5,779.00,1101.6
2020-08-08,11:50:00,DRY,2.70,17.03,38.7,779.00,1110.2
2020-08-08,11:55:00,DRY,2.25,17.40,35.5,779.00,1118.7
2020-08-08,12:00:00,DRY,3.07,17.93,36.7,779.00,1124.3
2020-08-08,12:05:00,DRY,2.45,17.40,35.0,779.00,1127.3
2020-08-08,12:10:00,DRY,3.37,17.57,35.0,779.00,1136.4
2020-08-08,12:15:00,DRY,2.95,17.60,33.0,779.00,1141.4
2020-08-08,12:20:00,DRY,1.33,17.43,32.0,779.00,1146.4
2020-08-08,12:25:00,DRY,3.45,17.45,32.0,779.00,1153.8
2020-08-08,12:30:00,DRY,2.00,17.63,36.7,779.00,1159.9
2020-08-08,12:35:00,DRY,3.50,17.70,37.5,779.00,1163.5
2020-08-08,12:40:00,DRY,2.87,17.97,36.7,779.00,1166.7
2020-08-08,12:45:00,DRY,3.30,17.65,38.5,779.00,1168.9
2020-08-08,12:50:00,DRY,3.10,17.70,36.7,779.00,1169.2
2020-08-08,12:55:00,DRY,2.85,17.30,36.5,779.00,1172.8
2020-08-08,13:00:00,DRY,2.57,17.47,37.0,779.00,1173.5
2020-08-08,13:05:00,DRY,2.95,17.65,38.5,779.00,1175.8
2020-08-08,13:10:00,DRY,3.70,18.03,35.0,779.00,1173.8
2020-08-08,13:15:00,DRY,3.05,18.00,36.5,779.00,1174.4
2020-08-08,13:20:00,DRY,2.87,17.77,38.7,779.00,1175.1
2020-08-08,13:25:00,DRY,3.50,18.20,36.0,779.00,1174.7
2020-08-08,13:30:00,DRY,4.50,18.00,38.0,779.00,1173.6
2020-08-08,13:35:00,DRY,3.60,17.90,40.0,779.00,1172.2
2020-08-08,13:40:00,DRY,4.07,17.83,38.0,779.00,1171.5
2020-08-08,13:45:00,DRY,3.25,17.60,39.0,779.00,1168.4
2020-08-08,13:50:00,DRY,2.67,17.70,37.7,779.00,1167.0
2020-08-08,13:55:00,DRY,3.55,17.95,36.5,779.00,1163.5
2020-08-08,14:00:00,DRY,3.57,18.23,36.7,779.00,1159.7
2020-08-08,14:05:00,DRY,3.50,18.00,36.0,779.00,1154.2
2020-08-08,14:10:00,DRY,4.00,18.33,35.0,779.00,1149.6
2020-08-08,14:15:00,DRY,4.15,18.05,37.0,779.00,1146.3
2020-08-08,14:20:00,DRY,3.77,18.10,38.7,778.67,1142.1
2020-08-08,14:25:00,DRY,3.80,18.05,34.0,779.00,1135.9
2020-08-08,14:30:00,DRY,3.50,18.27,38.3,779.00,1128.4
2020-08-08,14:35:00,DRY,3.55,17.95,38.5,779.00,1118.5
2020-08-08,14:40:00,DRY,4.07,17.87,39.7,778.00,1113.3
2020-08-08,14:45:00,DRY,4.10,17.70,39.0,778.00,1104.9
2020-08-08,14:50:00,DRY,3.93,17.83,40.7,778.33,1095.3
2020-08-08,14:55:00,DRY,3.55,18.25,39.0,778.00,1085.8
2020-08-08,15:00:00,DRY,3.27,18.20,34.7,778.00,1076.7
2020-08-08,15:05:00,DRY,3.60,18.30,35.5,778.50,1067.6
2020-08-08,15:10:00,DRY,3.73,18.00,36.7,778.33,1055.8
2020-08-08,15:15:00,DRY,3.35,17.85,38.0,778.00,1045.4
2020-08-08,15:20:00,DRY,3.87,17.40,40.7,778.00,1034.3
2020-08-08,15:25:00,DRY,3.10,17.50,43.0,778.00,1021.6
2020-08-08,15:30:00,DRY,2.80,17.60,40.3,778.00,1008.6
2020-08-08,15:35:00,DRY,3.40,17.60,41.0,778.00,997.1
2020-08-08,15:40:00,DRY,3.23,17.47,43.3,778.00,983.7
2020-08-08,15:45:00,DRY,3.70,18.15,39.0,778.00,969.9
2020-08-08,15:50:00,DRY,3.10,17.77,39.3,778.00,954.6
2020-08-08,15:55:00,DRY,3.50,17.35,41.0,778.00,938.9
2020-08-08,16:00:00,DRY,2.17,17.63,36.7,778.00,924.5
2020-08-08,16:05:00,DRY,2.65,17.90,38.0,778.00,910.2
2020-08-08,16:10:00,DRY,3.17,18.07,34.3,778.00,894.0
2020-08-08,16:15:00,DRY,4.60,17.85,34.5,778.00,878.5
2020-08-08,16:20:00,DRY,3.83,17.73,38.7,778.00,860.3
2020-08-08,16:25:00,DRY,3.10,17.65,33.5,778.00,845.0
2020-08-08,16:30:00,DRY,3.40,18.00,36.0,778.00,827.9
2020-08-08,16:35:00,DRY,4.25,18.10,34.5,778.00,810.1
2020-08-08,16:40:00,DRY,3.53,18.07,35.7,778.00,792.0
2020-08-08,16:45:00,DRY,4.25,17.95,29.0,778.00,773.7
2020-08-08,16:50:00,DRY,3.23,18.03,29.0,778.00,754.4
2020-08-08,16:55:00,DRY,2.20,17.50,27.5,778.00,736.1
2020-08-08,17:00:00,DRY,3.67,17.80,29.3,778.00,716.2
2020-08-08,17:05:00,DRY,3.80,17.45,30.0,778.00,697.5
2020-08-08,17:10:00,DRY,2.50,17.30,29.0,778.00,676.7
2020-08-08,17:15:00,DRY,3.70,17.25,32.0,778.00,656.9
2020-08-08,17:20:00,DRY,3.87,17.03,34.7,778.00,635.6
2020-08-08,17:25:00,DRY,3.40,17.10,31.0,778.00,616.2
2020-08-08,17:30:00,DRY,3.33,16.90,31.3,778.00,595.1
2020-08-08,17:35:00,DRY,4.60,17.15,31.5,778.00,575.4
2020-08-08,17:40:00,DRY,3.13,17.37,30.0,778.00,554.3
2020-08-08,17:45:00,DRY,3.80,16.80,29.0,778.00,534.2
2020-08-08,17:50:00,DRY,3.80,16.80,30.0,778.00,511.8
2020-08-08,17:55:00,DRY,3.65,17.00,31.5,778.00,489.5
2020-08-08,18:00:00,DRY,4.50,17.13,27.3,778.00,468.1
2020-08-08,18:05:00,DRY,3.85,16.85,26.5,778.00,446.4
2020-08-08,18:10:00,DRY,3.67,16.73,27.3,778.00,424.1
2020-08-08,18:15:00,DRY,3.60,17.15,27.5,778.00,402.1
2020-08-08,18:20:00,DRY,3.70,17.00,29.0,778.00,380.0
2020-08-08,18:25:00,DRY,4.05,17.00,30.5,778.00,356.9
2020-08-08,18:30:00,DRY,5.27,16.73,29.7,778.00,335.4
2020-08-08,18:35:00,DRY,3.50,16.60,31.0,778.00,312.6
2020-08-08,18:40:00,DRY,3.40,16.60,29.0,778.00,291.0
2020-08-08,18:45:00,DRY,4.95,16.65,31.5,778.00,269.0
2020-08-08,18:50:00,DRY,5.63,16.40,33.0,778.00,246.7
2020-08-08,18:55:00,DRY,6.75,16.35,33.5,778.00,226.3
2020-08-08,19:00:00,DRY,5.27,16.13,34.7,778.00,205.8
2020-08-08,19:05:00,DRY,5.75,16.10,36.0,778.00,118.2
2020-08-08,19:10:00,DRY,4.80,16.03,31.0,778.00,38.3
2020-08-08,19:15:00,DRY,3.45,15.95,31.0,778.00,36.3
2020-08-08,19:20:00,DRY,4.60,15.93,30.7,778.00,34.3
2020-08-08,19:25:00,DRY,6.10,15.75,31.0,778.00,32.0
2020-08-08,19:30:00,DRY,5.60,15.73,30.0,778.00,33.2
2020-08-08,19:35:00,DRY,5.25,15.65,29.0,778.00,38.4
2020-08-08,19:40:00,DRY,3.83,15.40,26.3,778.00,33.1
2020-08-08,19:45:00,DRY,5.30,15.20,25.0,778.00,22.2
2020-08-08,19:50:00,DRY,4.07,15.13,25.7,778.00,14.4
2020-08-08,19:55:00,DRY,4.30,15.05,25.5,778.00,9.4
2020-08-08,20:00:00,DRY,3.80,14.97,28.0,778.00,5.6
2020-08-08,20:05:00,DRY,4.95,14.75,27.5,778.00,3.6
2020-08-08,20:10:00,DRY,4.90,14.60,32.7,778.00,2.5
2020-08-08,20:15:00,DRY,5.30,14.55,29.5,778.00,1.6
2020-08-08,20:20:00,DRY,4.47,14.47,25.0,778.00,1.5
2020-08-08,20:25:00,DRY,4.55,14.35,28.5,778.00,1.2
2020-08-08,20:30:00,DRY,4.47,14.40,26.3,778.00,1.1
2020-08-08,20:35:00,DRY,6.10,14.30,24.5,778.00,1.1
2020-08-08,20:40:00,DRY,4.07,14.30,25.0,778.00,1.2
2020-08-08,20:45:00,DRY,5.10,14.30,29.0,778.00,1.6
2020-08-08,20:50:00,DRY,4.87,14.27,27.7,778.00,1.3
2020-08-08,20:55:00,DRY,3.30,14.30,22.5,778.00,1.1
2020-08-08,21:00:00,DRY,2.97,14.20,25.0,778.00,1.5
2020-08-08,21:05:00,DRY,4.50,14.20,28.0,778.00,1.2
2020-08-08,21:10:00,DRY,4.37,14.23,29.3,779.00,1.2
2020-08-08,21:15:00,DRY,3.85,14.20,29.5,779.00,1.0
2020-08-08,21:20:00,DRY,3.57,14.20,30.0,779.00,1.1
2020-08-08,21:25:00,DRY,3.45,14.10,24.5,779.00,1.7
2020-08-08,21:30:00,DRY,4.40,14.17,31.7,779.00,1.9
2020-08-08,21:35:00,DRY,3.90,14.25,32.5,779.00,1.1
2020-08-08,21:40:00,DRY,3.43,14.33,24.3,779.00,1.4
2020-08-08,21:45:00,DRY,3.85,14.30,26.0,779.00,1.5
2020-08-08,21:50:00,DRY,3.33,14.17,22.7,779.00,1.4
2020-08-08,21:55:00,DRY,4.10,14.20,29.0,779.00,1.4
2020-08-08,22:00:00,DRY,4.73,14.13,29.7,779.00,1.1
2020-08-08,22:05:00,DRY,3.65,14.20,26.5,779.00,1.6
2020-08-08,22:10:00,DRY,4.00,14.10,30.3,779.00,1.4
2020-08-08,22:15:00,DRY,4.45,14.10,34.5,779.00,1.2
2020-08-08,22:20:00,DRY,3.73,14.10,43.0,779.00,1.0
2020-08-08,22:25:00,DRY,5.05,14.15,40.0,779.00,0.6
2020-08-08,22:30:00,DRY,4.23,14.13,36.0,779.00,1.1
2020-08-08,22:35:00,DRY,5.00,14.10,39.0,779.00,1.1
2020-08-08,22:40:00,DRY,3.63,14.10,42.3,779.00,1.4
2020-08-08,22:45:00,DRY,2.95,14.10,44.5,779.00,1.2
2020-08-08,22:50:00,DRY,3.37,14.10,44.0,779.00,0.9
2020-08-08,22:55:00,DRY,3.85,14.10,38.5,779.00,1.5
2020-08-08,23:00:00,DRY,3.13,14.07,44.7,779.00,1.2
2020-08-08,23:05:00,DRY,3.70,14.10,41.5,779.00,1.4
2020-08-08,23:10:00,DRY,3.93,14.03,40.0,779.00,1.1
2020-08-08,23:15:00,DRY,3.85,14.05,48.0,779.00,1.0
2020-08-08,23:20:00,DRY,3.30,14.00,47.7,779.00,1.1
2020-08-08,23:25:00,DRY,4.30,14.05,45.5,779.00,1.2
2020-08-08,23:30:00,DRY,3.47,13.93,45.7,779.00,1.3
2020-08-08,23:35:00,DRY,3.70,13.80,48.5,779.00,1.5
2020-08-08,23:40:00,DRY,3.07,13.87,50.3,779.00,1.9
2020-08-08,23:45:00,DRY,3.40,13.85,48.5,779.00,1.1
2020-08-08,23:50:00,DRY,4.00,13.73,49.0,779.00,1.4
2020-08-08,23:55:00,DRY,3.25,13.75,53.0,779.00,1.5
2020-08-09,00:00:00,DRY,3.40,13.80,51.3,779.00,1.6
2020-08-09,00:05:00,DRY,3.35,13.70,50.0,779.00,1.3
2020-08-09,00:10:00,DRY,4.63,13.80,50.0,779.00,1.1
2020-08-09,00:15:00,DRY,4.35,13.85,50.0,779.00,1.1
2020-08-09,00:20:00,DRY,3.70,13.83,49.7,779.00,1.0
2020-08-09,00:25:00,DRY,4.15,13.75,50.0,779.00,0.9
2020-08-09,00:30:00,DRY,3.80,13.70,50.5,778.00,0.9
2020-08-09,00:35:00,DRY,2.90,13.65,50.5,778.00,1.5
2020-08-09,00:40:00,DRY,4.07,13.60,50.3,778.00,0.9
2020-08-09,00:45:00,DRY,4.50,13.60,52.5,778.00,1.1
2020-08-09,00:50:00,DRY,4.07,13.70,49.7,778.00,1.3
2020-08-09,00:55:00,DRY,4.05,13.60,50.0,778.00,1.4
2020-08-09,01:00:00,DRY,3.53,13.70,48.3,778.00,0.9
2020-08-09,01:05:00,DRY,2.90,13.70,47.5,778.00,2.2
2020-08-09,01:10:00,DRY,3.77,13.70,47.7,778.00,1.4
2020-08-09,01:15:00,DRY,3.55,13.65,47.5,778.00,1.3
2020-08-09,01:20:00,DRY,3.73,13.60,47.3,778.00,0.9
2020-08-09,01:25:00,DRY,3.25,13.65,47.0,778.00,0.8
2020-08-09,01:30:00,DRY,3.83,13.50,47.3,778.00,1.2
2020-08-09,01:35:00,DRY,4.05,13.60,47.0,778.00,1.2
2020-08-09,01:40:00,DRY,3.53,13.70,48.7,778.00,1.5
2020-08-09,01:45:00,DRY,3.65,13.70,47.0,778.00,1.1
2020-08-09,01:50:00,DRY,4.00,13.73,46.7,778.00,1.4
2020-08-09,01:55:00,DRY,3.50,13.75,47.0,778.00,1.7
2020-08-09,02:00:00,DRY,3.17,13.93,47.0,778.00,1.6
2020-08-09,02:05:00,DRY,3.20,14.10,47.0,778.00,2.0
2020-08-09,02:10:00,DRY,3.00,14.03,46.7,778.00,0.4
2020-08-09,02:15:00,DRY,3.50,13.80,48.0,778.00,1.2
2020-08-09,02:20:00,DRY,3.57,13.80,47.3,778.00,1.3
2020-08-09,02:25:00,DRY,3.25,13.90,47.5,778.00,1.0
2020-08-09,02:30:00,DRY,2.53,13.93,47.3,778.00,0.7
2020-08-09,02:35:00,DRY,2.65,14.00,47.0,778.00,1.1
2020-08-09,02:40:00,DRY,2.47,13.90,47.0,778.00,1.4
2020-08-09,02:45:00,DRY,2.10,13.90,48.0,778.00,1.2
2020-08-09,02:50:00,DRY,1.77,13.93,47.0,778.00,1.5
2020-08-09,02:55:00,DRY,1.95,13.90,47.0,778.00,2.2
2020-08-09,03:00:00,DRY,1.93,13.93,47.0,778.00,1.3
2020-08-09,03:05:00,DRY,1.70,13.85,46.5,778.00,1.4
2020-08-09,03:10:00,DRY,1.73,14.07,47.0,778.00,2.1
2020-08-09,03:15:00,DRY,1.75,14.00,47.5,777.50,1.7
2020-08-09,03:20:00,DRY,1.60,14.10,47.0,777.67,2.0
2020-08-09,03:25:00,DRY,2.00,14.05,47.0,778.00,1.0
2020-08-09,03:30:00,DRY,1.47,13.93,47.3,778.00,1.1
2020-08-09,03:35:00,DRY,0.90,14.15,46.5,778.00,2.0
2020-08-09,03:40:00,DRY,1.13,14.23,46.0,777.67,1.3
2020-08-09,03:45:00,DRY,0.85,14.45,44.5,778.00,1.7
2020-08-09,03:50:00,DRY,1.07,14.70,42.7,778.00,1.0
2020-08-09,03:55:00,DRY,1.10,14.70,43.0,778.00,2.0
2020-08-09,04:00:00,DRY,2.23,14.93,25.0,777.33,0.8
2020-08-09,04:05:00,DRY,1.60,14.95,28.0,778.00,0.6
2020-08-09,04:10:00,DRY,1.57,14.67,37.3,777.67,0.9
2020-08-09,04:15:00,DRY,1.30,14.30,42.0,777.00,1.1
2020-08-09,04:20:00,DRY,2.10,14.10,45.7,777.00,0.8
2020-08-09,04:25:00,DRY,2.05,13.90,46.5,777.00,1.8
2020-08-09,04:30:00,DRY,2.17,13.63,47.0,777.67,1.8
2020-08-09,04:35:00,DRY,1.85,13.55,47.0,777.00,0.8
2020-08-09,04:40:00,DRY,2.25,13.35,46.5,777.00,1.1
2020-08-09,04:45:00,DRY,2.80,13.15,45.5,777.00,1.1
2020-08-09,04:50:00,DRY,2.73,13.37,45.3,777.00,1.8
2020-08-09,04:55:00,DRY,2.00,13.50,42.0,777.00,2.1
2020-08-09,05:00:00,DRY,2.83,13.40,43.7,777.00,1.5
2020-08-09,05:05:00,DRY,2.20,13.40,41.0,777.00,1.7
2020-08-09,05:10:00,DRY,2.57,13.37,43.0,777.00,1.6
2020-08-09,05:15:00,DRY,2.85,13.50,44.5,777.00,1.1
2020-08-09,05:20:00,DRY,2.37,13.43,47.7,777.33,1.4
2020-08-09,05:25:00,DRY,2.50,13.35,47.5,778.00,1.1
2020-08-09,05:30:00,DRY,1.90,13.33,47.3,777.33,0.9
2020-08-09,05:35:00,DRY,2.10,13.30,48.0,778.00,1.2
2020-08-09,05:40:00,DRY,2.40,13.43,47.3,777.33,0.7
2020-08-09,05:45:00,DRY,2.80,13.55,47.0,778.00,1.5
2020-08-09,05:50:00,DRY,2.37,13.70,47.3,777.67,0.5
2020-08-09,05:55:00,DRY,2.40,13.80,48.0,778.00,1.2
2020-08-09,06:00:00,DRY,2.17,13.73,48.0,777.00,1.4
2020-08-09,06:05:00,DRY,2.35,13.70,48.0,777.00,1.9
2020-08-09,06:10:00,DRY,2.10,13.60,48.0,777.33,0.9
2020-08-09,06:15:00,DRY,1.90,13.50,49.0,777.50,0.9
2020-08-09,06:20:00,DRY,2.03,13.47,49.0,777.00,1.6
2020-08-09,06:25:00,DRY,2.10,13.40,49.0,777.00,2.5
2020-08-09,06:30:00,DRY,2.50,13.43,48.0,777.67,4.5
2020-08-09,06:35:00,DRY,2.45,13.50,48.0,777.50,5.2
2020-08-09,06:40:00,DRY,1.97,13.60,47.3,777.33,10.5
2020-08-09,06:45:00,DRY,2.00,13.70,46.5,778.00,25.8
2020-08-09,06:50:00,DRY,1.23,13.87,45.7,777.33,45.4
2020-08-09,06:55:00,DRY,1.55,14.10,42.0,777.00,66.3
2020-08-09,07:00:00,DRY,2.47,14.27,37.0,777.00,90.1
2020-08-09,07:05:00,DRY,2.50,14.50,32.5,777.00,113.5
2020-08-09,07:10:00,DRY,2.30,14.50,37.7,777.33,133.8
2020-08-09,07:15:00,DRY,1.95,14.65,39.0,777.00,153.1
2020-08-09,07:20:00,DRY,2.03,14.87,36.3,777.00,173.2
2020-08-09,07:25:00,DRY,2.40,15.00,33.5,777.00,194.6
2020-08-09,07:30:00,DRY,1.67,15.37,31.0,777.67,215.2
2020-08-09,07:35:00,DRY,2.45,15.40,30.0,777.00,238.1
2020-08-09,07:40:00,DRY,2.30,15.47,32.0,777.00,259.9
2020-08-09,07:45:00,DRY,1.90,15.55,31.0,777.00,282.1
2020-08-09,07:50:00,DRY,2.57,15.73,30.3,777.00,305.6
2020-08-09,07:55:00,DRY,2.10,15.95,30.5,777.50,328.0
2020-08-09,08:00:00,DRY,2.97,16.10,29.0,778.00,350.3
2020-08-09,08:05:00,DRY,2.85,16.15,31.0,777.50,372.8
2020-08-09,08:10:00,DRY,2.10,16.37,28.7,778.00,395.1
2020-08-09,08:15:00,DRY,1.90,16.50,28.5,778.00,417.2
2020-08-09,08:20:00,DRY,2.60,16.63,29.3,778.00,438.7
2020-08-09,08:25:00,DRY,2.65,16.70,28.5,778.00,460.9
2020-08-09,08:30:00,DRY,2.50,16.67,29.3,777.67,483.6
2020-08-09,08:35:00,DRY,2.50,16.85,28.5,778.00,507.0
2020-08-09,08:40:00,DRY,3.10,16.97,28.0,778.00,528.7
2020-08-09,08:45:00,DRY,3.15,17.15,27.0,778.00,548.9
2020-08-09,08:50:00,DRY,3.00,17.23,27.3,778.00,569.8
2020-08-09,08:55:00,DRY,2.80,17.10,28.5,778.00,592.2
2020-08-09,09:00:00,DRY,2.90,17.23,27.0,778.00,613.2
2020-08-09,09:05:00,DRY,3.25,17.55,26.5,777.50,634.1
2020-08-09,09:10:00,DRY,2.77,17.43,28.3,778.00,654.3
2020-08-09,09:15:00,DRY,3.15,17.50,26.5,778.00,674.8
2020-08-09,09:20:00,DRY,2.80,17.40,26.7,777.67,694.8
2020-08-09,09:25:00,DRY,3.00,17.50,27.0,778.00,714.0
2020-08-09,09:30:00,DRY,2.30,17.23,27.3,777.67,733.9
2020-08-09,09:35:00,DRY,2.05,17.15,30.0,778.00,751.1
2020-08-09,09:40:00,DRY,1.83,17.30,29.7,778.00,771.2
2020-08-09,09:45:00,DRY,1.10,17.60,30.0,778.00,790.5
2020-08-09,09:50:00,DRY,1.80,18.03,30.0,778.00,809.1
2020-08-09,09:55:00,DRY,2.05,17.90,30.0,778.00,825.9
2020-08-09,10:00:00,DRY,1.53,18.27,24.7,778.00,843.6
2020-08-09,10:05:00,DRY,1.60,18.20,27.0,778.00,860.8
2020-08-09,10:10:00,DRY,1.67,18.70,25.7,778.00,876.9
2020-08-09,10:15:00,DRY,1.70,18.75,25.5,778.00,891.8
2020-08-09,10:20:00,DRY,1.80,18.77,33.0,778.00,907.9
2020-08-09,10:25:00,DRY,0.95,18.30,31.5,778.00,925.0
2020-08-09,10:30:00,DRY,1.47,18.43,31.0,778.00,940.7
2020-08-09,10:35:00,DRY,2.40,18.10,32.0,778.00,954.2
2020-08-09,10:40:00,DRY,2.53,18.17,33.7,778.00,968.9
2020-08-09,10:45:00,DRY,1.60,18.15,32.5,778.00,982.2
2020-08-09,10:50:00,DRY,1.60,18.67,32.0,778.00,995.9
2020-08-09,10:55:00,DRY,2.55,18.70,32.0,778.00,1009.5
2020-08-09,11:00:00,DRY,2.03,18.77,31.3,778.00,1020.9
2020-08-09,11:05:00,DRY,1.55,18.50,35.5,778.00,1034.8
2020-08-09,11:10:00,DRY,1.80,18.57,38.7,778.00,1044.6
2020-08-09,11:15:00,DRY,1.85,18.55,41.0,778.00,1057.9
2020-08-09,11:20:00,DRY,1.60,19.33,38.7,778.00,1069.4
2020-08-09,11:25:00,DRY,1.80,19.55,38.0,778.00,1079.5
2020-08-09,11:30:00,DRY,2.43,19.43,47.0,778.00,1090.5
2020-08-09,11:35:00,DRY,1.45,19.50,37.5,778.00,1099.6
2020-08-09,11:40:00,DRY,2.23,19.80,32.7,778.00,1109.4
2020-08-09,11:45:00,DRY,2.15,19.90,37.0,778.00,1116.5
2020-08-09,11:50:00,DRY,2.97,19.77,38.3,778.00,1124.9
2020-08-09,11:55:00,DRY,2.65,19.55,28.0,778.00,1132.7
2020-08-09,12:00:00,DRY,2.13,19.77,30.7,778.00,1141.5
2020-08-09,12:05:00,DRY,2.10,19.25,30.5,778.00,1147.8
2020-08-09,12:10:00,DRY,3.27,19.63,46.3,778.00,1152.4
2020-08-09,12:15:00,DRY,2.55,19.50,39.5,778.00,1158.6
2020-08-09,12:20:00,DRY,2.30,18.80,45.7,778.00,1162.2
2020-08-09,12:25:00,DRY,2.00,18.95,50.0,778.00,1165.1
2020-08-09,12:30:00,DRY,2.50,19.43,42.7,778.00,1171.4
2020-08-09,12:35:00,DRY,1.95,19.90,34.5,778.00,1177.5
2020-08-09,12:40:00,DRY,2.07,19.50,35.3,778.00,1177.5
2020-08-09,12:45:00,DRY,3.50,19.30,40.5,778.00,1179.4
2020-08-09,12:50:00,DRY,2.93,19.50,40.7,777.67,1182.8
2020-08-09,12:55:00,DRY,1.90,19.75,47.0,778.00,1187.9
2020-08-09,13:00:00,DRY,2.20,20.23,46.3,778.00,1188.3
2020-08-09,13:05:00,DRY,2.00,19.60,48.0,778.00,1187.3
2020-08-09,13:10:00,DRY,2.07,19.17,50.0,778.00,1187.2
2020-08-09,13:15:00,DRY,2.10,20.15,47.5,777.50,1189.8
2020-08-09,13:20:00,DRY,3.30,19.77,51.7,777.33,1187.6
2020-08-09,13:25:00,DRY,2.65,19.35,55.0,777.00,1186.2
2020-08-09,13:30:00,DRY,1.70,18.60,58.0,777.00,1190.6
2020-08-09,13:35:00,DRY,1.30,19.30,53.0,777.00,1183.5
2020-08-09,13:40:00,DRY,1.80,19.07,53.7,777.00,1181.8
2020-08-09,13:45:00,DRY,2.55,19.10,53.0,777.00,1174.3
2020-08-09,13:50:00,DRY,2.30,18.87,49.0,777.33,1172.9
2020-08-09,13:55:00,DRY,2.45,19.00,46.5,777.00,1167.1
2020-08-09,14:00:00,DRY,1.90,19.07,43.3,777.00,1166.0
2020-08-09,14:05:00,DRY,1.75,19.25,38.5,777.00,1159.7
2020-08-09,14:10:00,DRY,3.00,19.03,44.0,777.00,1156.6
2020-08-09,14:15:00,DRY,2.75,19.00,41.0,777.00,1149.9
2020-08-09,14:20:00,DRY,2.73,18.57,46.3,777.00,1144.1
2020-08-09,14:25:00,DRY,2.70,17.80,54.0,777.00,1136.3
2020-08-09,14:30:00,DRY,2.03,17.47,54.0,777.00,1129.5
2020-08-09,14:35:00,DRY,1.80,18.75,49.5,777.00,1122.9
2020-08-09,14:40:00,DRY,1.87,17.97,53.3,777.00,1113.1
2020-08-09,14:45:00,DRY,2.50,18.45,50.5,777.00,1103.7
2020-08-09,14:50:00,DRY,1.70,18.40,49.7,777.00,1101.6
2020-08-09,14:55:00,DRY,2.00,18.45,53.0,777.00,1094.1
2020-08-09,15:00:00,DRY,2.13,18.27,43.3,777.00,1087.2
2020-08-09,15:05:00,DRY,2.65,18.20,48.0,777.00,1074.6
2020-08-09,15:10:00,DRY,2.73,18.07,54.7,777.00,1061.9
2020-08-09,15:15:00,DRY,2.95,19.25,49.0,777.00,1053.6
2020-08-09,15:20:00,DRY,1.47,18.17,54.7,777.00,1039.0
2020-08-09,15:25:00,DRY,1.40,18.10,52.0,777.00,1027.5
2020-08-09,15:30:00,DRY,2.90,18.10,54.3,777.00,1015.2
2020-08-09,15:35:00,DRY,3.00,18.25,52.5,777.00,1001.0
2020-08-09,15:40:00,DRY,2.40,17.63,54.7,777.00,987.2
2020-08-09,15:45:00,DRY,1.70,17.45,52.5,777.00,973.6
2020-08-09,15:50:00,DRY,2.23,17.73,47.3,777.00,960.4
2020-08-09,15:55:00,DRY,1.85,18.10,41.5,777.00,947.8
2020-08-09,16:00:00,DRY,2.80,17.97,48.0,777.00,931.0
2020-08-09,16:05:00,DRY,2.55,17.65,47.5,777.00,913.8
2020-08-09,16:10:00,DRY,2.83,17.70,44.3,777.00,900.6
2020-08-09,16:15:00,DRY,3.35,17.95,42.5,777.00,884.9
2020-08-09,16:20:00,DRY,2.30,18.10,40.3,777.00,865.6
2020-08-09,16:25:00,DRY,2.35,18.25,44.5,777.00,850.4
2020-08-09,16:30:00,DRY,1.77,18.23,44.0,777.00,831.7
2020-08-09,16:35:00,DRY,2.70,17.65,42.0,777.00,812.8
2020-08-09,16:40:00,DRY,3.37,17.70,42.0,777.00,795.2
2020-08-09,16:45:00,DRY,2.50,18.40,40.5,777.00,778.2
2020-08-09,16:50:00,DRY,3.10,18.43,47.7,777.00,756.7
2020-08-09,16:55:00,DRY,3.30,17.15,47.5,777.00,738.5
2020-08-09,17:00:00,DRY,2.77,17.70,42.0,777.00,719.4
2020-08-09,17:05:00,DRY,3.75,17.55,39.0,777.00,699.6
2020-08-09,17:10:00,DRY,3.00,17.17,31.3,777.00,680.3
2020-08-09,17:15:00,DRY,3.05,17.70,37.5,777.00,659.2
2020-08-09,17:20:00,DRY,2.33,17.13,33.0,777.00,639.0
2020-08-09,17:25:00,DRY,3.45,16.90,31.5,777.00,617.9
2020-08-09,17:30:00,DRY,2.73,17.20,30.0,777.00,597.0
2020-08-09,17:35:00,DRY,3.30,17.20,31.5,777.00,575.4
2020-08-09,17:40:00,DRY,3.07,17.17,30.7,776.67,554.5
2020-08-09,17:45:00,DRY,3.30,17.20,31.0,777.00,533.5
2020-08-09,17:50:00,DRY,3.00,17.47,33.3,776.00,511.7
2020-08-09,17:55:00,DRY,3.45,16.90,35.5,776.00,489.0
2020-08-09,18:00:00,DRY,3.77,17.27,33.3,776.00,467.7
2020-08-09,18:05:00,DRY,2.75,16.50,38.5,776.00,445.6
2020-08-09,18:10:00,DRY,2.90,16.83,35.7,776.00,423.1
2020-08-09,18:15:00,DRY,3.35,16.70,29.5,776.00,401.4
2020-08-09,18:20:00,DRY,2.93,16.73,29.3,776.00,377.9
2020-08-09,18:25:00,DRY,2.90,16.95,28.0,776.00,355.6
2020-08-09,18:30:00,DRY,3.47,17.40,27.7,776.00,333.4
2020-08-09,18:35:00,DRY,3.80,16.75,29.0,776.00,310.8
2020-08-09,18:40:00,DRY,2.27,16.43,30.0,776.00,287.9
2020-08-09,18:45:00,DRY,2.35,16.55,29.5,776.00,265.6
2020-08-09,18:50:00,DRY,3.03,16.67,30.7,776.00,244.4
2020-08-09,18:55:00,DRY,3.05,16.35,30.5,776.00,222.5
2020-08-09,19:00:00,DRY,3.30,16.30,32.0,776.00,182.7
2020-08-09,19:05:00,DRY,2.85,16.00,36.5,776.00,49.1
2020-08-09,19:10:00,DRY,3.60,16.00,30.3,776.00,37.7
2020-08-09,19:15:00,DRY,4.00,16.10,28.0,776.00,35.4
2020-08-09,19:20:00,DRY,3.67,15.77,29.7,776.00,32.5
2020-08-09,19:25:00,DRY,4.55,15.75,31.0,776.00,30.1